Location: ICStars Ranch
(38.8297°N, 93.7687°W)
Time: 10:32:41
(UTC-05:00)

Daily predictions for brighter satellites

Satellite Brightness Start Highest point End
(mag) Time Altitude Azimuth Time Altitude Azimuth Time Altitude Azimuth
BREEZE-M DEB (TANK) 3.7 19:19:55 10° WNW 19:23:08 81° SW 19:33:08 10° SE
Cosmos 2233 Rocket 4.2 19:19:34 10° S 19:25:51 86° W 19:32:14 10° N
Cosmos 1452 Rocket 4.5 19:21:46 10° N 19:26:12 27° ENE 19:30:38 10° ESE
NOSS 3-2 (A) 3.5 19:22:56 10° SSW 19:28:54 69° ESE 19:35:22 10° NE
SL-16 R/B 2.2 19:23:16 10° SSW 19:28:55 69° ESE 19:34:35 10° NNE
FREGAT/IRIS 3.6 19:28:14 10° SE 19:30:56 28° ENE 19:33:38 10° NNE
DMSP B5D1-3 4.5 19:26:50 10° NNE 19:31:57 77° ESE 19:37:03 10° S
ATLAS CENTAUR R/B 1.5 19:28:47 10° NW 19:32:58 73° WSW 19:36:47 10° SSE
SKYMED 2 3.9 19:29:26 10° N 19:33:46 75° WNW 19:38:06 10° SSW
Cosmos 1408 Rocket 4.2 19:34:16 10° NNE 19:38:14 33° ENE 19:42:07 10° SE
Cosmos 1437 2.9 19:37:16 10° NNW 19:40:33 77° W 19:43:47 10° S
METEOR-M 4.5 19:37:04 10° SE 19:42:07 45° ENE 19:47:11 10° N
Cosmos 1378 3.0 19:42:03 10° N 19:45:47 67° E 19:49:28 10° SSE
Cosmos 1953 3.0 19:42:41 10° SSE 19:46:16 32° E 19:49:50 10° NNE
Cosmos 1805 3.8 19:47:24 10° SSE 19:51:01 36° E 19:54:38 10° NNE
H-2A R/B 4.4 19:50:09 14° E 19:51:33 16° ENE 19:54:00 10° NNE
Meteor 1-28 Rocket 3.1 19:48:58 10° NNE 19:52:42 82° ESE 19:56:24 10° S
Okean 3 Rocket 4.0 19:49:03 10° NNW 19:53:35 69° W 19:58:05 10° S
SAR-Lupe-4 3.8 19:50:04 10° S 19:53:37 74° WSW 19:57:11 10° NNW
Cosmos 2278 Rocket 3.8 19:49:27 10° NW 19:54:39 38° WSW 19:59:48 10° S
Resurs 1-3 4.2 19:50:58 10° SE 19:54:58 36° ENE 19:59:00 10° N
Resurs 01 Rocket 1.9 19:51:32 10° SSE 19:55:49 48° ENE 20:00:07 10° N
Abrixas 3.4 19:56:11 10° SSW 19:58:51 29° SE 20:00:02 22° E
ASTEX 1 4.3 19:54:55 10° NNE 19:58:58 26° E 20:03:01 10° SE
Meteor 1-22 Rocket 4.5 19:55:13 10° SSW 20:00:32 68° W 20:05:49 10° N
Cosmos 2297 4.0 19:55:18 10° NNW 20:00:57 72° WSW 20:06:32 10° SSE
Cosmos 1346 4.3 19:58:54 10° NNE 20:01:15 21° ENE 20:01:23 21° E
NOSS 3-3 (A) 4.5 19:55:04 10° NNW 20:02:35 76° NE 20:10:33 10° SE
NOSS 3-3 (C) 4.5 19:55:10 10° NNW 20:02:41 75° NE 20:10:39 10° SE
CENTAUR R/B 3.4 19:58:55 10° SSE 20:03:36 24° ESE 20:08:38 10° ENE
Spot 2 Rocket 3.5 19:59:30 10° SSE 20:04:28 64° ENE 20:09:28 10° N
Cosmos 1269 Rocket 4.5 19:59:46 10° SSE 20:04:34 37° E 20:09:24 10° NE
Cosmos 1743 Rocket 4.3 20:02:37 10° NNE 20:06:37 32° ENE 20:09:33 16° SE
Helios 1A 3.0 20:02:35 10° SSE 20:06:40 56° ENE 20:10:47 10° N
NOSS 3-2 (C) 3.6 20:01:10 10° SW 20:07:13 82° WNW 20:13:50 10° NNE
Meteor 1-24 Rocket 4.4 20:04:50 10° NNW 20:10:19 55° W 20:15:35 10° S
Cosmos 1943 4.1 20:08:00 10° SSE 20:12:23 24° ESE 20:16:48 10° NE
Cosmos 2369 Rocket 3.5 20:08:25 10° N 20:12:42 21° NE 20:14:17 19° ENE
Cosmos 1470 3.8 20:13:51 25° E 20:13:51 25° E 20:16:46 10° NE
Cosmos 724 4.2 20:10:06 10° SSW 20:15:58 74° ESE 20:22:02 10° NNE
Cosmos 1943 Rocket 4.2 20:15:03 10° NE 20:16:00 10° NE 20:16:39 10° NE
Cosmos 1603 3.7 20:10:37 10° S 20:16:16 63° ESE 20:21:57 10° NNE
SJ-6B 3.9 20:13:11 10° S 20:17:00 47° W 20:20:56 10° NNW
GPS 2-04 Rocket1 3.6 20:16:08 10° SW 20:19:07 26° SSE 20:19:40 25° SE
Nadezhda 4 Rocket 4.0 20:15:15 10° N 20:21:25 56° E 20:27:29 10° SSE
GP-B 4.3 20:20:49 10° NNE 20:23:34 23° ENE 20:23:34 23° ENE
HJ-1C 3.9 20:23:39 10° S 20:26:57 61° W 20:30:18 10° NNW
Cosmos 1092 Rocket 4.2 20:22:27 10° N 20:28:24 45° ENE 20:32:27 20° SE
Cosmos 1758 3.6 20:24:29 10° SSW 20:28:32 71° W 20:32:38 10° N
Meteor 2-12 Rocket 4.4 20:24:58 10° S 20:31:08 89° E 20:37:19 10° N
ISS -2.5 20:30:54 10° SSW 20:33:16 36° S 20:33:16 36° S
Cosmos 1674 2.9 20:32:54 10° N 20:36:37 48° ENE 20:36:37 48° ENE
FengYun 1-2 T 4.2 20:31:50 10° SSE 20:37:21 84° WSW 20:42:53 10° NNW
OAO 3 Rocket 3.5 20:34:38 10° W 20:39:18 54° S 20:40:37 41° SE
Cosmos 1634 Rocket 4.2 20:36:04 10° SSE 20:42:00 47° E 20:47:55 10° NNE
USA 215 3.5 20:35:55 10° NE 20:42:25 70° NW 20:48:53 10° WSW
ASTRO E2 4.1 20:39:20 10° WSW 20:42:43 25° S 20:43:08 25° S
ALOS 2.2 20:42:33 18° SSE 20:46:05 88° W 20:50:46 10° NNW
Meteor 1-29 4.2 20:43:19 10° N 20:46:40 42° WNW 20:49:58 10° SW
Helios 1B rocket 3.8 20:44:43 10° N 20:48:34 39° WNW 20:52:24 10° SW
ERS-1 Rocket 4.0 20:55:08 29° NE 20:55:08 29° NE 20:58:27 10° N
SeaSat 1 2.3 20:51:59 10° NNE 20:56:54 63° ESE 21:01:46 10° SSW
ATLAS 5 CENTAUR R/B 3.4 20:52:39 10° WSW 20:57:03 35° NW 21:01:48 10° NNE
CZ-4B DEB 3.5 20:57:05 52° WSW 20:57:07 52° W 21:00:19 10° NNW
Atlas Centaur 2 4.5 20:55:37 10° WSW 21:02:09 25° SSW 21:06:05 17° SSE
CZ-2D R/B 3.9 21:09:15 50° WSW 21:09:37 53° W 21:13:27 10° NNW
Cosmos 2151 4.4 21:07:50 10° N 21:09:57 28° N 21:09:57 28° N
Cosmos 1842 Rocket 4.2 21:09:21 10° SSW 21:13:34 54° W 21:17:51 10° N
Cosmos 1500 Rocket 4.1 21:11:39 10° NNW 21:16:01 58° W 21:16:34 53° SW
SL-8 R/B 4.0 21:15:24 10° WSW 21:20:05 63° NNW 21:20:05 63° NNW
Cosmos 839 Rocket 4.1 21:16:39 10° NNW 21:24:13 70° ENE 21:24:46 67° E
H-2A R/B 4.3 21:25:25 33° WSW 21:25:34 34° W 21:29:09 10° NNW
Cosmos 1627 Rocket 4.3 21:22:51 10° N 21:29:05 88° E 21:29:34 78° SSE
Gbstr 26 Del rocket 4.1 21:25:25 10° SW 21:28:31 45° WSW 21:28:31 45° WSW
CENTAUR R/B 3.1 21:47:41 10° SW 21:53:38 55° NW 22:00:21 10° NNE
Envisat 4.4 21:56:32 32° NNW 21:56:32 32° NNW 21:59:16 10° NNW
Cosmos 1943 4.2 21:50:45 10° SW 21:56:07 44° WNW 22:01:30 10° N
Cosmos 2369 Rocket 3.0 21:51:33 10° NNW 21:56:06 49° WNW 21:56:06 49° WNW
Cosmos 1943 Rocket 3.6 21:55:15 10° NNW 21:58:11 31° N 21:58:11 31° N
BREEZE-M DEB (TANK) 4.4 22:02:16 10° WNW 22:07:42 36° NW 22:07:42 36° NW
